Terminal Aerodrome Forecast
Issued by NWS

Home | Current Version | Previous Version | Text Only | Print | Product List | Glossary On
Versions: 1 2 3 4 5 6 7 8 9 10 11
000
FTUS46 KHNX 292320
TAFVIS
TAF
KVIS 292320Z 3000/3024 32008KT P6SM SCT200
     FM300300 VRB03KT P6SM FEW200
     FM301900 31009KT P6SM FEW200=

USA.gov is the U.S. government's official web portal to all federal, state and local government web resources and services.